Terminal Aerodrome Forecast
Issued by NWS

Home | Current Version | Previous Version | Graphics & Text | Print | Product List | Glossary On
Versions: 1 2 3 4 5 6 7 8 9 10 11 12 13 14 15 16 17 18 19 20 21
000
FTUS43 KBIS 181100
TAFMOT
TAF
KMOT 181130Z 1812/1912 28013KT P6SM SCT035
     FM181700 31012G20KT P6SM VCSH BKN040
     FM182230 31012KT P6SM SCT040
     FM190100 31006KT P6SM SKC=

USA.gov is the U.S. government's official web portal to all federal, state and local government web resources and services.